Location: Banksville Park
(38.5557°N, 75.1182°W)
Time: 13:06:36
(UTC+00:00)

Cosmos 2298 Rocket - Pass Details

Date: 19 September 2020
Orbit: 776 x 783 km, 74.0° (Epoch: 21 October)

Event Time Altitude Azimuth Distance (km) Brightness Sun altitude
Rises 00:56:00 0° 205° (SSW) 3,255 7.3 -22.4°
Reaches altitude 10° 00:58:24 10° 208° (SSW) 2,331 6.6 -22.8°
Maximum altitude 01:03:40 64° 290° (WNW) 863 4.4 -23.8°
Drops below altitude 10° 01:08:57 10° 12° (NNE) 2,345 6.6 -24.8°
Sets 01:11:23 0° 16° (NNE) 3,277 7.4 -25.2°
